Vertical_Velocity
0 -2 -3 -4 -2 -2 -0 1 6 -2 -1 2 1 2 -5 4 2 -7 2 -4 -10 -7 3 2 -2 -0 -2 2 1 1 3 2 -0 -3 -2 -0 0 2 -4 -3 -5 -2 -1
0 -2 -0 -6 -3 0 2 3 1 7 -1 -3 2 -3 7 -1 -5 -1 3 1 -11 1 4 3 1 1 1 2 3 2 -4 -6 -2 1 1 2 -1 -4 -6 -1 -2 4 3
-1 0 -1 -4 -2 2 3 1 -4 -6 7 1 -1 3 3 5 -4 -2 -1 -4 -1 -0 -6 -5 -3 -0 -0 -2 -6 -6 0 -3 -0 -5 -9 -3 1 1 -8 -2 1 -5 6
2 1 -4 2 -0 -1 -4 -3 3 2 4 3 3 3 -0 -8 -2 -2 -7 7 1 2 -1 0 1 1 1 1 2 0 -1 -1 -4 -3 -0 -3 -7 -3 1 -0 -3 -8 -1
-4 1 4 2 1 -0 -3 -2 -2 2 2 -4 1 0 -11 -3 4 4 3 6 2 -2 -1 -2 0 -0 -1 4 1 -1 -1 -2 -1 -1 -3 -3 -3 -1 -7 -1 -2 -7 -0
-2 -2 1 3 2 5 7 6 6 4 2 6 1 2 3 1 0 5 4 -1 -2 -2 -1 1 0 1 7 5 1 -1 -1 0 -1 -3 -1 -1 -2 -4 -6 -4 1 -2 -5
-0 1 1 -2 -1 0 1 1 2 3 4 -1 -3 1 -1 1 1 -3 -1 -6 1 5 4 1 20 2 1 4 4 0 -1 0 -1 -1 -1 0 -1 -2 -3 -2 -1 0 -1
3 2 -2 3 -0 -4 -0 1 -1 -1 -3 -3 -2 -1 -2 -2 -1 -0 2 2 1 0 -0 8 13 4 -3 -7 7 1 2 -2 -1 -0 0 -3 -3 -3 -4 -6 -8 -7 -1
5 3 2 3 -0 -2 -3 -2 -2 -2 -5 -2 1 1 -2 0 3 -3 -4 1 4 1 5 10 6 9 -1 15 -1 6 -1 -2 -2 -0 -2 1 -1 -2 -1 -8 -6 -3 0
-0 2 4 7 6 2 -2 -3 -4 -4 -1 3 3 8 5 3 3 3 2 7 5 1 8 47 4 12 0 7 4 -2 -6 -3 -1 -2 -2 -0 -3 -4 -1 1 -4 -9 -6
4 2 7 3 1 3 1 5 -2 11 8 16 18 5 25 18 -8 1 3 6 1 13 53 -1 -1 7 0 -3 -4 -0 -0 0 -1 -2 -2 -3 -2 -3 -5 -2 -4 -1 -8
5 -3 -6 -4 1 2 -0 4 7 7 -1 1 12 1 3 17 9 11 61 21 154 38 32 -12 5 -2 4 -2 3 -1 1 -2 -1 -2 -4 -2 1 -0 -2 -3 -0 -3 -2
-0 3 -2 -7 -1 -2 -2 -1 3 3 7 -1 -3 5 22 -2 12 24 7 -10 -7 59 -10 -7 1 0 -3 -0 -3 1 -2 -0 -3 -1 -5 -2 -0 -1 -3 -1 -2 -3 -2
-12 -1 3 -5 -13 -11 -4 -3 4 8 -0 2 5 -6 10 -1 -1 -2 -3 3 3 3 4 4 8 -1 -3 -1 1 2 1 1 -1 -3 -4 -1 2 0 -0 -3 0 -1 -3
-5 2 2 8 1 -1 -0 -3 -4 -4 -5 3 3 5 1 5 2 -7 -13 -6 -7 -4 2 3 3 -4 2 2 1 2 -0 -2 -2 2 4 5 1 -3 5 1 1 -3 1
0 -5 -3 4 7 3 7 -0 0 2 -2 1 3 0 1 -1 -1 -3 5 -3 1 5 3 3 1 4 2 -1 -2 -1 0 4 3 -1 0 1 1 3 2 -3 -4 6 -0
-7 -1 5 4 3 -1 1 1 -2 1 4 1 -3 1 -1 -0 3 10 10 5 0 -0 -1 -1 -1 -2 0 4 5 5 2 1 -2 -0 2 -2 0 0 2 -0 1 -5 -11
0 -2 1 -6 -5 0 -4 -0 -0 -2 -4 4 12 8 2 4 1 -0 1 2 2 2 -1 -0 2 4 6 6 1 3 0 1 0 -0 1 -0 -2 1 1 3 3 4 2
1 -2 3 -3 -1 4 -1 1 -1 -1 -1 1 -0 2 4 7 8 4 1 0 2 2 5 7 5 4 4 4 1 -3 -2 -2 -1 -1 0 1 -0 -1 -0 -1 1 7 10
-2 -6 0 -4 -1 -3 1 1 -3 -1 2 -1 -1 2 1 -1 -2 0 2 0 -0 1 1 0 -1 1 1 -3 -5 -3 1 3 2 1 -2 -1 1 -1 -2 2 -1 4 2
-6 -3 -5 -0 -1 -1 1 -1 -2 0 1 1 -1 -1 -2 0 2 -0 1 2 -2 0 1 0 0 0 -0 -3 -4 -2 -2 -2 -2 -2 -3 -2 -2 -1 -3 -5 -6 -5 -2
0 0 0 0 2 1 -2 -0 1 3 -1 -1 -2 -2 -1 -1 -1 -1 -2 -1 -4 -2 -0 -1 -2 0 -0 -0 1 0 -0 -0 0 -1 -4 -4 -2 -4 -3 -1 -2 -2 -4
0 0 -3 1 -0 1 -1 -1 2 1 -1 -1 1 -0 -1 -0 0 -1 -1 -3 -1 -1 -2 0 1 -0 -0 -1 -1 -1 1 -1 -1 -0 -1 -0 0 -1 -2 -3 0 -0 -4
-1 -1 -0 2 4 2 -1 -1 2 0 -1 -3 -1 2 4 1 -2 -1 -1 -0 -1 0 1 -0 -0 -1 -2 1 0 -1 2 0 2 -2 -1 3 1 0 1 -0 -2 -2 -3
0 -1 -4 1 4 2 -2 -1 1 1 -1 -0 1 1 1 -1 -2 -0 -3 -0 -0 1 -1 -1 -2 -2 -2 -1 -1 -1 -1 1 2 -3 2 0 1 1 -3 -3 -2 -1 -3
-0 1 1 1 1 2 1 1 2 -1 -2 -3 -3 -2 -2 -0 -1 -0 -2 1 1 -1 -3 2 6 4 3 4 2 -1 2 3 1 0 0 1 3 -1 -0 2 2 1 -0
Height
5749 5749 5747 5745 5745 5745 5742 5742 5742 5745 5747 5748 5749 5752 5751 5752 5752 5757 5761 5762 5763 5763 5768 5772 5774 5775 5778 5779 5782 5784 5785 5786 5787 5786 5785 5784 5783 5780 5778 5776 5773 5770 5766
5748 5749 5748 5746 5746 5745 5744 5744 5744 5744 5748 5747 5749 5748 5753 5756 5757 5760 5760 5764 5759 5765 5767 5771 5771 5773 5775 5777 5778 5778 5779 5779 5779 5778 5777 5775 5776 5774 5770 5767 5765 5761 5758
5746 5746 5747 5748 5747 5746 5746 5748 5748 5748 5748 5751 5752 5754 5756 5757 5758 5760 5763 5759 5760 5762 5765 5766 5768 5769 5772 5773 5772 5772 5772 5771 5770 5770 5768 5766 5765 5764 5762 5759 5755 5753 5750
5744 5745 5744 5746 5747 5747 5749 5750 5750 5750 5751 5752 5752 5752 5754 5756 5755 5756 5757 5758 5758 5760 5760 5761 5763 5764 5765 5767 5766 5765 5765 5763 5762 5761 5758 5757 5756 5755 5752 5749 5746 5742 5739
5743 5744 5745 5744 5744 5746 5747 5748 5748 5747 5749 5749 5748 5750 5751 5747 5748 5752 5754 5755 5755 5756 5758 5759 5759 5758 5759 5760 5759 5758 5757 5757 5754 5751 5749 5748 5748 5745 5743 5740 5736 5732 5728
5742 5743 5743 5744 5744 5744 5744 5743 5743 5742 5741 5741 5742 5741 5744 5745 5747 5750 5751 5750 5750 5752 5752 5753 5753 5752 5752 5753 5752 5751 5751 5749 5747 5744 5742 5741 5739 5736 5733 5730 5726 5722 5717
5740 5741 5742 5742 5742 5742 5742 5742 5740 5739 5740 5740 5742 5743 5745 5746 5746 5746 5745 5746 5748 5748 5747 5746 5746 5746 5745 5745 5745 5745 5743 5742 5740 5737 5735 5733 5730 5726 5723 5719 5715 5711 5706
5739 5739 5740 5740 5739 5739 5739 5740 5740 5740 5741 5742 5743 5743 5743 5742 5742 5742 5743 5742 5741 5740 5739 5740 5740 5740 5739 5736 5737 5736 5735 5734 5732 5729 5726 5723 5719 5715 5711 5707 5702 5698 5692
5736 5737 5737 5738 5737 5735 5735 5735 5734 5735 5738 5740 5740 5741 5740 5739 5737 5737 5737 5737 5736 5733 5733 5732 5733 5734 5733 5730 5729 5728 5727 5725 5722 5719 5715 5712 5709 5705 5699 5694 5689 5685 5680
5729 5731 5732 5734 5734 5733 5731 5731 5731 5732 5733 5732 5732 5732 5732 5731 5732 5730 5730 5729 5729 5727 5728 5722 5725 5724 5723 5723 5718 5718 5718 5714 5711 5708 5705 5702 5697 5692 5687 5683 5676 5670 5666
5724 5726 5728 5729 5728 5729 5728 5728 5727 5727 5728 5728 5728 5724 5723 5722 5722 5722 5722 5719 5718 5719 5716 5715 5716 5716 5713 5713 5712 5709 5707 5704 5701 5698 5694 5691 5686 5680 5674 5668 5662 5656 5649
5718 5719 5721 5723 5722 5723 5724 5724 5723 5723 5723 5720 5718 5717 5717 5715 5714 5714 5706 5705 5701 5708 5698 5706 5708 5709 5707 5702 5701 5700 5698 5695 5691 5688 5684 5679 5674 5667 5661 5654 5648 5642 5635
5713 5713 5712 5711 5714 5717 5717 5717 5717 5716 5715 5712 5709 5707 5709 5700 5706 5699 5699 5701 5701 5698 5700 5701 5702 5701 5698 5696 5693 5691 5687 5684 5680 5676 5671 5666 5660 5654 5646 5640 5634 5627 5621
5706 5708 5706 5704 5704 5705 5706 5707 5709 5710 5705 5705 5703 5702 5701 5698 5700 5701 5699 5694 5695 5690 5691 5693 5692 5690 5687 5684 5682 5679 5676 5673 5669 5665 5659 5652 5646 5640 5633 5626 5620 5613 5608
5698 5703 5704 5702 5701 5701 5700 5700 5699 5700 5698 5697 5697 5696 5695 5695 5693 5692 5688 5688 5686 5686 5686 5684 5682 5679 5677 5674 5673 5670 5667 5663 5658 5652 5645 5639 5633 5626 5620 5614 5606 5598 5591
5691 5692 5697 5698 5696 5694 5692 5693 5693 5693 5691 5691 5689 5688 5687 5684 5683 5681 5680 5680 5679 5678 5676 5675 5673 5670 5668 5667 5663 5658 5654 5649 5643 5637 5631 5626 5620 5613 5605 5598 5591 5583 5575
5683 5684 5687 5690 5687 5684 5683 5684 5684 5683 5681 5680 5680 5679 5677 5676 5673 5672 5673 5673 5672 5671 5669 5667 5664 5661 5657 5653 5650 5647 5641 5635 5629 5623 5617 5611 5605 5599 5592 5584 5574 5565 5555
5675 5678 5679 5680 5676 5676 5676 5675 5675 5675 5672 5670 5668 5667 5666 5665 5665 5664 5663 5663 5662 5659 5656 5653 5651 5648 5646 5643 5638 5633 5628 5621 5615 5609 5603 5597 5591 5585 5578 5569 5561 5551 5539
5667 5669 5668 5668 5669 5670 5670 5668 5666 5665 5665 5663 5661 5660 5659 5658 5657 5654 5653 5651 5649 5647 5645 5643 5641 5639 5635 5631 5625 5619 5613 5607 5601 5595 5589 5583 5576 5569 5562 5555 5547 5538 5526
5658 5660 5660 5660 5660 5661 5661 5660 5659 5657 5656 5656 5655 5653 5652 5650 5648 5647 5645 5643 5641 5638 5636 5633 5631 5627 5622 5617 5611 5605 5598 5591 5584 5578 5572 5566 5559 5552 5545 5537 5529 5521 5511
5649 5651 5651 5652 5651 5651 5650 5650 5650 5649 5648 5647 5646 5645 5643 5641 5639 5637 5635 5633 5630 5627 5625 5622 5619 5614 5608 5601 5594 5588 5582 5575 5568 5561 5555 5548 5540 5532 5524 5515 5507 5498 5489
5638 5641 5642 5642 5642 5642 5642 5641 5641 5639 5638 5636 5635 5634 5633 5631 5629 5627 5624 5622 5619 5617 5614 5610 5605 5600 5594 5587 5581 5574 5567 5559 5551 5543 5536 5527 5519 5511 5502 5494 5485 5475 5464
5629 5632 5632 5632 5633 5633 5632 5630 5629 5628 5626 5625 5623 5621 5619 5618 5616 5614 5612 5609 5607 5604 5600 5595 5590 5585 5579 5573 5565 5558 5550 5542 5534 5526 5518 5509 5500 5491 5482 5472 5462 5450 5440
5619 5622 5621 5621 5621 5621 5621 5619 5617 5616 5614 5613 5611 5609 5607 5605 5603 5601 5598 5595 5592 5589 5584 5579 5574 5568 5562 5555 5547 5541 5533 5525 5517 5508 5498 5489 5481 5471 5461 5450 5438 5427 5416
5610 5610 5611 5610 5609 5610 5609 5608 5606 5604 5602 5600 5599 5596 5594 5592 5589 5586 5583 5579 5575 5571 5567 5561 5555 5549 5543 5536 5529 5522 5514 5506 5496 5487 5478 5469 5459 5449 5439 5428 5417 5405 5392
5599 5599 5599 5599 5598 5597 5596 5595 5593 5591 5589 5587 5586 5583 5580 5577 5574 5570 5566 5562 5557 5553 5547 5541 5536 5529 5523 5516 5509 5500 5491 5484 5474 5465 5456 5448 5439 5429 5419 5408 5396 5384 5371